When you browse on this site, cookies collect data to enhance your experience and personalize the content and advertising you see.
Visit our Privacy Policy to learn more. By continuing to use the site, you agree to this use of cookies and data.
  • In Switzerland
  • List of Countries
  • For 7 days
  • Water Temperature
  • Weather Map
  • Weather Widgets
  • user-avatar
    Login

    Hourly Weather Perestrelovo

    Today, 17 August, Saturday

    Time Temperature Precipitation Wind Pressure Humidity
    00:00 +12°C° 0 mm 1 mps 755 mmHg 82%
    01:00 +11°C° 0 mm 0 mps 755 mmHg 84%
    02:00 +10°C° 0 mm 0 mps 755 mmHg 84%
    03:00 +10°C° 0 mm 0 mps 755 mmHg 84%
    04:00 +10°C° 0 mm 0 mps 755 mmHg 85%
    05:00 +10°C° 0 mm 0 mps 755 mmHg 86%
    06:00 +13°C° 0 mm 1 mps 755 mmHg 79%
    07:00 +15°C° 0 mm 1 mps 755 mmHg 73%
    08:00 +18°C° 0 mm 1 mps 755 mmHg 66%
    09:00 +20°C° 0 mm 1 mps 755 mmHg 60%
    10:00 +21°C° 0 mm 1 mps 755 mmHg 54%
    11:00 +22°C° 0 mm 1 mps 755 mmHg 48%
    12:00 +23°C° 0 mm 1 mps 755 mmHg 47%
    13:00 +23°C° 0 mm 1 mps 755 mmHg 45%
    14:00 +24°C° 0 mm 1 mps 754 mmHg 43%
    15:00 +23°C° 0 mm 1 mps 754 mmHg 46%
    16:00 +23°C° 0 mm 1 mps 754 mmHg 49%
    17:00 +23°C° 0 mm 1 mps 754 mmHg 53%
    18:00 +21°C° 0 mm 1 mps 754 mmHg 59%
    19:00 +18°C° 0 mm 1 mps 754 mmHg 66%
    20:00 +15°C° 0 mm 1 mps 753 mmHg 72%
    21:00 +14°C° 0 mm 1 mps 753 mmHg 76%
    22:00 +14°C° 0 mm 1 mps 753 mmHg 80%
    23:00 +13°C° 0 mm 1 mps 753 mmHg 83%

    Tomorrow, 18 August, Sunday

    Time Temperature Precipitation Wind Pressure Humidity
    00:00 +13°C° 0 mm 1 mps 753 mmHg 85%
    01:00 +11°C° 0 mm 0 mps 753 mmHg 87%
    02:00 +11°C° 0 mm 0 mps 753 mmHg 89%
    03:00 +12°C° 0 mm 1 mps 753 mmHg 90%
    04:00 +11°C° 0 mm 1 mps 753 mmHg 90%
    05:00 +11°C° 0 mm 1 mps 753 mmHg 91%
    06:00 +13°C° 0 mm 1 mps 752 mmHg 84%
    07:00 +15°C° 0 mm 1 mps 752 mmHg 77%
    08:00 +18°C° 0 mm 1 mps 752 mmHg 69%
    09:00 +18°C° 0 mm 0 mps 752 mmHg 64%
    10:00 +20°C° 0 mm 0 mps 752 mmHg 58%
    11:00 +22°C° 0 mm 0 mps 752 mmHg 52%
    12:00 +22°C° 0 mm 0 mps 752 mmHg 50%
    13:00 +24°C° 0 mm 1 mps 751 mmHg 48%
    14:00 +24°C° 0 mm 1 mps 751 mmHg 46%
    15:00 +24°C° 0 mm 1 mps 751 mmHg 49%
    16:00 +24°C° 0 mm 1 mps 751 mmHg 52%
    17:00 +24°C° 0 mm 1 mps 751 mmHg 55%
    18:00 +22°C° 0 mm 1 mps 751 mmHg 60%
    19:00 +20°C° 0 mm 1 mps 751 mmHg 66%
    20:00 +18°C° 0 mm 1 mps 751 mmHg 72%
    21:00 +16°C° 0 mm 1 mps 751 mmHg 76%
    22:00 +16°C° 0 mm 2 mps 751 mmHg 80%
    23:00 +15°C° 0 mm 2 mps 751 mmHg 84%

    Day after tomorrow, 19 August, Monday

    Time Temperature Precipitation Wind Pressure Humidity
    00:00 +15°C° 0 mm 2 mps 751 mmHg 86%
    01:00 +15°C° 0 mm 2 mps 751 mmHg 89%
    02:00 +14°C° 0 mm 3 mps 751 mmHg 91%
    03:00 +14°C° 0 mm 3 mps 751 mmHg 91%
    04:00 +16°C° 0 mm 3 mps 751 mmHg 90%
    05:00 +16°C° 0 mm 3 mps 751 mmHg 90%
    06:00 +17°C° 0 mm 4 mps 751 mmHg 87%
    07:00 +18°C° 0 mm 4 mps 751 mmHg 84%
    08:00 +19°C° 0 mm 4 mps 751 mmHg 81%
    09:00 +19°C° 0 mm 4 mps 751 mmHg 80%
    10:00 +20°C° 0 mm 4 mps 751 mmHg 78%
    11:00 +21°C° 0 mm 4 mps 752 mmHg 77%
    12:00 +21°C° 0 mm 4 mps 752 mmHg 77%
    13:00 +22°C° 0 mm 3 mps 752 mmHg 77%
    14:00 +22°C° 0 mm 3 mps 752 mmHg 77%
    15:00 +22°C° 0.2 mm 3 mps 753 mmHg 79%
    16:00 +24°C° 0.2 mm 3 mps 753 mmHg 81%
    17:00 +24°C° 0.2 mm 3 mps 753 mmHg 82%
    18:00 +22°C° 0.2 mm 3 mps 753 mmHg 86%
    19:00 +21°C° 0.2 mm 2 mps 753 mmHg 91%
    20:00 +20°C° 0.2 mm 2 mps 754 mmHg 95%
    21:00 +19°C° 0 mm 2 mps 754 mmHg 95%
    22:00 +18°C° 0 mm 2 mps 754 mmHg 95%
    23:00 +18°C° 0 mm 1 mps 755 mmHg 95%

    20 August, Tuesday

    Time Temperature Precipitation Wind Pressure Humidity
    00:00 +18°C° 0 mm 1 mps 755 mmHg 95%
    01:00 +18°C° 0 mm 1 mps 755 mmHg 94%
    02:00 +15°C° 0 mm 0 mps 756 mmHg 94%
    03:00 +16°C° 0.2 mm 1 mps 756 mmHg 94%
    04:00 +16°C° 0.2 mm 1 mps 756 mmHg 95%
    05:00 +16°C° 0.2 mm 1 mps 756 mmHg 95%
    06:00 +18°C° 0 mm 1 mps 756 mmHg 92%
    07:00 +19°C° 0 mm 1 mps 756 mmHg 89%
    08:00 +20°C° 0 mm 1 mps 757 mmHg 86%
    09:00 +22°C° 0 mm 1 mps 757 mmHg 78%
    10:00 +23°C° 0 mm 1 mps 757 mmHg 70%
    11:00 +25°C° 0 mm 1 mps 757 mmHg 62%
    12:00 +25°C° 0 mm 1 mps 757 mmHg 60%
    13:00 +26°C° 0 mm 1 mps 757 mmHg 57%
    14:00 +26°C° 0 mm 1 mps 757 mmHg 55%
    15:00 +26°C° 0 mm 1 mps 757 mmHg 58%
    16:00 +25°C° 0 mm 1 mps 757 mmHg 61%
    17:00 +25°C° 0 mm 1 mps 757 mmHg 64%
    18:00 +23°C° 0 mm 1 mps 757 mmHg 69%
    19:00 +21°C° 0 mm 1 mps 757 mmHg 74%
    20:00 +19°C° 0 mm 1 mps 757 mmHg 78%
    21:00 +18°C° 0 mm 1 mps 757 mmHg 81%
    22:00 +16°C° 0 mm 1 mps 758 mmHg 83%
    23:00 +16°C° 0 mm 1 mps 758 mmHg 85%

    21 August, Wednesday

    Time Temperature Precipitation Wind Pressure Humidity
    00:00 +15°C° 0 mm 1 mps 758 mmHg 84%
    01:00 +15°C° 0 mm 1 mps 758 mmHg 83%
    02:00 +14°C° 0 mm 1 mps 758 mmHg 82%
    03:00 +14°C° 0 mm 1 mps 758 mmHg 83%
    04:00 +14°C° 0 mm 1 mps 758 mmHg 83%
    05:00 +14°C° 0 mm 1 mps 758 mmHg 84%
    06:00 +15°C° 0 mm 1 mps 758 mmHg 81%
    07:00 +18°C° 0 mm 1 mps 758 mmHg 79%
    08:00 +19°C° 0 mm 1 mps 758 mmHg 76%
    09:00 +19°C° 0 mm 2 mps 758 mmHg 76%
    10:00 +20°C° 0 mm 2 mps 757 mmHg 76%
    11:00 +21°C° 0 mm 2 mps 757 mmHg 76%
    12:00 +20°C° 0.6 mm 3 mps 756 mmHg 82%
    13:00 +19°C° 0.6 mm 3 mps 755 mmHg 87%
    14:00 +19°C° 0.6 mm 4 mps 755 mmHg 93%
    15:00 +18°C° 2.5 mm 4 mps 754 mmHg 94%
    16:00 +18°C° 2.5 mm 4 mps 754 mmHg 95%
    17:00 +18°C° 2.5 mm 4 mps 753 mmHg 96%
    18:00 +16°C° 0.9 mm 5 mps 753 mmHg 96%
    19:00 +14°C° 0.9 mm 5 mps 753 mmHg 96%
    20:00 +13°C° 0.9 mm 6 mps 753 mmHg 96%
    21:00 +13°C° 0.9 mm 5 mps 754 mmHg 96%
    22:00 +13°C° 0.9 mm 4 mps 754 mmHg 96%
    23:00 +13°C° 0.9 mm 4 mps 755 mmHg 96%

    22 August, Thursday

    Time Temperature Precipitation Wind Pressure Humidity
    00:00 +13°C° 0 mm 4 mps 755 mmHg 96%
    01:00 +13°C° 0 mm 4 mps 756 mmHg 96%
    02:00 +13°C° 0 mm 4 mps 757 mmHg 95%
    03:00 +12°C° 0 mm 3 mps 757 mmHg 96%
    04:00 +11°C° 0 mm 3 mps 757 mmHg 97%
    05:00 +12°C° 0 mm 2 mps 757 mmHg 97%
    06:00 +13°C° 0 mm 2 mps 758 mmHg 95%
    07:00 +14°C° 0 mm 2 mps 758 mmHg 92%
    08:00 +14°C° 0 mm 3 mps 758 mmHg 90%
    09:00 +16°C° 0 mm 3 mps 759 mmHg 81%
    10:00 +18°C° 0 mm 3 mps 759 mmHg 71%
    11:00 +20°C° 0 mm 3 mps 759 mmHg 62%
    12:00 +20°C° 0 mm 4 mps 759 mmHg 59%
    13:00 +21°C° 0 mm 4 mps 759 mmHg 56%
    14:00 +22°C° 0 mm 4 mps 759 mmHg 53%
    15:00 +21°C° 0 mm 4 mps 759 mmHg 57%
    16:00 +21°C° 0 mm 3 mps 759 mmHg 60%
    17:00 +20°C° 0 mm 3 mps 759 mmHg 63%
    18:00 +18°C° 0 mm 2 mps 759 mmHg 68%
    19:00 +16°C° 0 mm 2 mps 759 mmHg 73%
    20:00 +14°C° 0 mm 2 mps 760 mmHg 79%
    21:00 +14°C° 0 mm 2 mps 760 mmHg 81%
    22:00 +13°C° 0 mm 2 mps 760 mmHg 84%
    23:00 +12°C° 0 mm 2 mps 760 mmHg 87%
    Show more